Location: Arleux
(50.3632°N, 2.8721°E)
Time: 06:43:56
(UTC+00:00)

Cosmos 44 - Pass Details

Date: 15 December 2019
Orbit: 595 x 767 km, 65.1° (Epoch: 17 January)

Event Time Altitude Azimuth Distance (km) Brightness Sun altitude
Exits shadow 04:24:02 36° 126° (SE) 1,018 4.5 -30.2°
Maximum altitude 04:24:13 36° 120° (ESE) 1,013 4.5 -30.2°
Drops below altitude 10° 04:28:21 10° 54° (NE) 1,999 6.3 -29.5°
Sets 04:30:42 0° 46° (NE) 2,888 7.1 -29.1°
